Location: Unspecified
(48.2082°N, 0.0000°E)
Time: 04:32:23
(UTC+00:00)

A-11 Canister half - Pass Details

Date: 20 August 2020
Orbit: 1514 x 1686 km, 47.2° (Epoch: 21 September)

Event Time Altitude Azimuth Distance (km) Brightness Sun altitude
Rises 23:19:26 0° 285° (WNW) 4,859 12.0 -29.0°
Reaches altitude 10° 23:25:19 10° 258° (WSW) 3,903 11.1 -29.2°
Maximum altitude 23:28:40 12° 238° (WSW) 3,745 10.8 -29.3°
Enters shadow 23:29:08 12° 235° (SW) 3,750 10.8 -29.3°
